Rutherford County, North Carolina, United States
Lat: 35.39N, Lon: 81.98W
Wx Zone: NCZ508
Local Info
Past Weather Observations for Today

NOTE: This archive is for the closest National Weather Service station to Rutherford County. Information may differ from the station used for current weather conditions.

Click here for Long-term Archive

Time Weather Temperature Dewpoint Humidity Pressure Winds Precip Visibility
13:55
Clear
45°F / 7°C 18°F / -8°C 34% 30.12 in
(1020 mb)
W 12.7 mph
(W 20 kph)
- 10SM
13:35
Partly Cloudy
45°F / 7°C 18°F / -8°C 34% 30.12 in
(1020 mb)
WNW 18.4 mph
(WNW 30 kph)
- 10SM
13:15
Clear
43°F / 6°C 18°F / -8°C 36% 30.12 in
(1020 mb)
WNW 16.1 mph
(WNW 26 kph)
- 10SM
12:55
Clear
45°F / 7°C 18°F / -8°C 34% 30.15 in
(1021 mb)
NW 16.1 mph
(NW 26 kph)
- 10SM
12:35
Clear
43°F / 6°C 18°F / -8°C 36% 30.15 in
(1021 mb)
WNW 16.1 mph
(WNW 26 kph)
- 10SM
12:15
Partly Cloudy
43°F / 6°C 18°F / -8°C 36% 30.15 in
(1021 mb)
WNW 9.2 mph
(WNW 15 kph)
- 10SM
11:55
Partly Cloudy
43°F / 6°C 18°F / -8°C 36% 30.15 in
(1021 mb)
W 8.1 mph
(W 13 kph)
- 10SM
11:35
Partly Cloudy
41°F / 5°C 18°F / -8°C 39% 30.18 in
(1022 mb)
W 5.8 mph
(W 9 kph)
- 10SM
11:15
Clear
39°F / 4°C 18°F / -8°C 42% 30.18 in
(1022 mb)
W 4.6 mph
(W 7 kph)
- 10SM
10:55
Clear
36°F / 2°C 16°F / -9°C 44% 30.18 in
(1022 mb)
Calm - 10SM
10:35
Clear
34°F / 1°C 16°F / -9°C 48% 30.18 in
(1022 mb)
Calm - 10SM
10:15
Clear
32°F / 0°C 16°F / -9°C 51% 30.18 in
(1022 mb)
Calm - 10SM
09:55
Clear
30°F / -1°C 14°F / -10°C 51% 30.18 in
(1022 mb)
Calm - 10SM
09:35
Clear
30°F / -1°C 14°F / -10°C 51% 30.18 in
(1022 mb)
Calm - 10SM
09:15
Clear
28°F / -2°C 14°F / -10°C 55% 30.18 in
(1022 mb)
Calm - 10SM
08:55
Clear
27°F / -3°C 12°F / -11°C 54% 30.15 in
(1021 mb)
Calm - 10SM
08:35
Clear
23°F / -5°C 10°F / -12°C 58% 30.15 in
(1021 mb)
Calm - 10SM
08:15
Clear
21°F / -6°C 10°F / -12°C 63% 30.15 in
(1021 mb)
Calm - 10SM
07:55
Clear
19°F / -7°C 9°F / -13°C 63% 30.15 in
(1021 mb)
W 3.5 mph
(W 6 kph)
- 10SM
07:35
Partly Cloudy
18°F / -8°C 9°F / -13°C 68% 30.15 in
(1021 mb)
E 3.5 mph
(E 6 kph)
- 10SM
07:20
Mostly Cloudy
19°F / -7°C 9°F / -13°C 63% 30.15 in
(1021 mb)
Calm - 10SM
06:55
Overcast
19°F / -7°C 7°F / -14°C 58% 30.15 in
(1021 mb)
ENE 3.5 mph
(ENE 6 kph)
- 10SM
06:35
Overcast
19°F / -7°C 7°F / -14°C 58% 30.12 in
(1020 mb)
E 3.5 mph
(E 6 kph)
- 10SM
06:15
Mostly Cloudy
19°F / -7°C 7°F / -14°C 58% 30.12 in
(1020 mb)
E 4.6 mph
(E 7 kph)
- 10SM
05:55
Mostly Cloudy
19°F / -7°C 5°F / -15°C 53% 30.12 in
(1020 mb)
Calm - 10SM
05:35
Clear
19°F / -7°C 7°F / -14°C 58% 30.12 in
(1020 mb)
E 3.5 mph
(E 6 kph)
- 10SM
05:15
Clear
21°F / -6°C 7°F / -14°C 54% 30.12 in
(1020 mb)
Calm - 10SM
04:55
Clear
25°F / -4°C 9°F / -13°C 50% 30.09 in
(1019 mb)
Calm - 10SM
04:35
Clear
25°F / -4°C 7°F / -14°C 46% 30.09 in
(1019 mb)
SW 3.5 mph
(SW 6 kph)
- 10SM
04:15
Clear
25°F / -4°C 5°F / -15°C 42% 30.09 in
(1019 mb)
SW 3.5 mph
(SW 6 kph)
- 10SM
03:55
Clear
25°F / -4°C 5°F / -15°C 42% 30.09 in
(1019 mb)
SW 3.5 mph
(SW 6 kph)
- 10SM
03:35
Clear
25°F / -4°C 3°F / -16°C 39% 30.09 in
(1019 mb)
SSW 4.6 mph
(SSW 7 kph)
- 10SM
03:15
Clear
25°F / -4°C 1°F / -17°C 36% 30.09 in
(1019 mb)
SSE 3.5 mph
(SSE 6 kph)
- 10SM
02:55
Clear
25°F / -4°C 3°F / -16°C 39% 30.09 in
(1019 mb)
SW 4.6 mph
(SW 7 kph)
- 10SM
02:35
Clear
25°F / -4°C 3°F / -16°C 39% 30.09 in
(1019 mb)
Calm - 10SM
02:15
Clear
25°F / -4°C 1°F / -17°C 36% 30.09 in
(1019 mb)
SW 5.8 mph
(SW 9 kph)
- 10SM
01:55
Clear
25°F / -4°C 1°F / -17°C 36% 30.06 in
(1018 mb)
SSW 4.6 mph
(SSW 7 kph)
- 10SM
01:35
Clear
27°F / -3°C 1°F / -17°C 33% 30.06 in
(1018 mb)
Calm - 10SM
01:15
Clear
27°F / -3°C 1°F / -17°C 33% 30.06 in
(1018 mb)
SSW 4.6 mph
(SSW 7 kph)
- 10SM
00:55
Clear
27°F / -3°C 1°F / -17°C 33% 30.06 in
(1018 mb)
W 8.1 mph
(W 13 kph)
- 10SM
00:35
Clear
25°F / -4°C 1°F / -17°C 36% 30.06 in
(1018 mb)
W 6.9 mph
(W 11 kph)
- 10SM
00:15
Clear
25°F / -4°C 1°F / -17°C 36% 30.06 in
(1018 mb)
WNW 6.9 mph
(WNW 11 kph)
- 10SM
Time Weather Temperature Dewpoint Humidity Pressure Winds Precip Visibility


Weather for websites

WeatherForYou.com, LLC is not responsible for any damages or problems caused by this service. Current weather conditions are obtained from the closest station including government and personal stations which may have varying degrees of accuracy. Weather forecasts are derived from the NOAA NDFD. Like all things, this site belongs to Jesus Christ... He just trusts us to maintain it. If you have any questions or comments email webmaster@weatherforyou.com

Copyright © 2016, WeatherForYou.com LLC. All rights reserved.